Weather History for Vancouver, WA

Change the Weather History Date:

Friday, May 11, 2012

  Actual Average Record
Temperature  
Mean Temperature 57 °F 57 °F  
Max Temperature 77 °F 67 °F 91 °F (1931)
Min Temperature 37 °F 47 °F 34 °F (1916)
Degree Days  
Heating Degree Days 8    
Month to date heating degree days 124  
Since 1 July heating degree days 4143  
Cooling Degree Days 0    
Month to date cooling degree days 0  
Year to date cooling degree days 4  
Growing Degree Days 7 (Base 50)    
Moisture  
Dew Point 36 °F    
Average Humidity 48    
Maximum Humidity 79    
Minimum Humidity 16    
Precipitation  
Precipitation 0.00 in 0.08 in 0.99 in (1970)
Month to date precipitation 1.18 1.04  
Year to date precipitation 21.01 17.15  
Snow  
Snow 0.00 in - - ()
Month to date snowfall 0.0  
Snow Depth 0.00 in    
Sea Level Pressure  
Sea Level Pressure 30.20 in    
Wind  
Wind Speed 4 mph (NW)    
Max Wind Speed 17 mph    
Max Gust Speed 22 mph    
Visibility 10 miles    
Events      
T = Trace of Precipitation, MM = Missing Value Source: NWS Daily Summary

Daily Weather History Graph

Daily Weather History Graph

Search for Another Location

Airport:

Trip Planner

Search our weather history database for the weather conditions in past years. The results will help you decide how hot, cold, wet, or windy it might be!

Date:

Astronomy

May. 11, 2012 Rise Set
Actual Time 5:43 AM PDT 8:30 PM PDT
Civil Twilight 5:09 AM PDT 9:05 PM PDT
Nautical Twilight 4:26 AM PDT 9:49 PM PDT
Astronomical Twilight 3:35 AM PDT 10:40 PM PDT
Moon 1:11 AM PDT (5/11) 11:26 AM PDT (5/11)
Length of Visible Light 15h 55m
Length of Day
14h 47m
Waning Gibbous, 62% of the Moon is Illuminated
May 11
Waning Gibbous
May 12
Last Quarter
May 20
New
May 28
First Quarter
Jun 4
Full

Hourly Weather History & Observations

Time (PDT) Temp. Dew Point Humidity Pressure Visibility Wind Dir Wind Speed Gust Speed Precip Events Conditions
12:53 AM 50.0 °F 37.0 °F 61% 30.28 in 10.0 mi NW 8.1 mph - N/A   Clear
1:53 AM 48.0 °F 37.0 °F 66% 30.28 in 10.0 mi Calm Calm - N/A   Clear
2:53 AM 48.0 °F 36.0 °F 63% 30.27 in 10.0 mi Calm Calm - N/A   Clear
3:53 AM 46.9 °F 35.1 °F 63% 30.28 in 10.0 mi NNW 3.5 mph - N/A   Clear
4:53 AM 39.9 °F 33.1 °F 77% 30.27 in 10.0 mi Calm Calm - N/A   Clear
5:53 AM 39.9 °F 33.1 °F 77% 30.27 in 10.0 mi Calm Calm - N/A   Clear
6:53 AM 45.0 °F 34.0 °F 65% 30.27 in 10.0 mi Calm Calm - N/A   Clear
7:53 AM 48.0 °F 34.0 °F 58% 30.28 in 10.0 mi Variable 3.5 mph - N/A   Clear
8:53 AM 51.1 °F 34.0 °F 52% 30.27 in 10.0 mi Variable 3.5 mph - N/A   Clear
9:53 AM 55.0 °F 35.1 °F 47% 30.26 in 10.0 mi Variable 3.5 mph - N/A   Clear
10:53 AM 57.9 °F 37.0 °F 46% 30.25 in 10.0 mi WNW 3.5 mph - N/A   Clear
11:53 AM 62.1 °F 37.9 °F 41% 30.22 in 10.0 mi NW 5.8 mph - N/A   Clear
12:53 PM 68.0 °F 39.9 °F 36% 30.19 in 10.0 mi WNW 6.9 mph - N/A   Clear
1:53 PM 70.0 °F 37.0 °F 30% 30.17 in 10.0 mi SW 6.9 mph - N/A   Clear
2:53 PM 73.9 °F 35.1 °F 24% 30.15 in 10.0 mi NE 8.1 mph 19.6 mph N/A   Clear
3:53 PM 75.0 °F 30.9 °F 20% 30.13 in 10.0 mi Variable 4.6 mph - N/A   Clear
4:53 PM 75.9 °F 28.0 °F 17% 30.10 in 10.0 mi Variable 4.6 mph - N/A   Clear
5:53 PM 75.9 °F 26.1 °F 16% 30.09 in 10.0 mi NNW 6.9 mph - N/A   Clear
6:53 PM 73.9 °F 33.1 °F 22% 30.09 in 10.0 mi NNW 4.6 mph - N/A   Clear
7:53 PM 71.1 °F 37.0 °F 29% 30.10 in 10.0 mi NNW 4.6 mph - N/A   Clear
8:53 PM 64.9 °F 39.0 °F 39% 30.11 in 10.0 mi Calm Calm - N/A   Clear
9:53 PM 59.0 °F 41.0 °F 51% 30.13 in 10.0 mi Calm Calm - N/A   Clear
10:53 PM 55.9 °F 42.1 °F 60% 30.13 in 10.0 mi Calm Calm - N/A   Clear
11:53 PM 55.0 °F 41.0 °F 59% 30.13 in 10.0 mi Calm Calm - N/A   Clear